Weather History for KBWG - September, 2013

Change the Weather History Date:

Sunday, September 22, 2013

  Actual Average Record
Temperature  
Mean Temperature 62 °F 68 °F  
Max Temperature 74 °F 80 °F 98 °F (1931)
Min Temperature 50 °F 55 °F 37 °F (1983)
Degree Days  
Heating Degree Days 3 2  
Month to date heating degree days 10 11  
Since 1 July heating degree days 10 12  
Cooling Degree Days 0 4  
Month to date cooling degree days 173 159  
Year to date cooling degree days 1433 1428  
Growing Degree Days 12 (Base 50)    
Moisture  
Dew Point 50 °F    
Average Humidity 69    
Maximum Humidity 96    
Minimum Humidity 41    
Precipitation  
Precipitation 0.00 in 0.13 in 2.48 in (2003)
Month to date precipitation 4.98 2.87  
Year to date precipitation 47.68 36.43  
Snow  
Snow 0.00 in 0.00 in 0.00 in ()
Month to date snowfall 0.0 0.0  
Since 1 July snowfall 0.0 0.0  
Since 1 September snowfall 0.0 0.0  
Snow Depth 0.00 in    
Sea Level Pressure  
Sea Level Pressure 29.94 in    
Wind  
Wind Speed 4 mph (NE)    
Max Wind Speed 12 mph    
Max Gust Speed 16 mph    
Visibility 10 miles    
Events      
T = Trace of Precipitation, MM = Missing Value Source: NWS Daily Summary

Daily Weather History Graph

Daily Weather History Graph

Search for Another Location

Airport or City:

Trip Planner

Search our weather history database for the weather conditions in past years. The results will help you decide how hot, cold, wet, or windy it might be!

Date:

Astronomy

Sep. 22, 2013 Rise Set
Actual Time 6:33 AM CDT 6:42 PM CDT
Civil Twilight 6:07 AM CDT 7:08 PM CDT
Nautical Twilight 5:37 AM CDT 7:38 PM CDT
Astronomical Twilight 5:06 AM CDT 8:08 PM CDT
Moon 8:37 PM CDT (9/22) 9:47 AM CDT (9/22)
Length of Visible Light 13h 00m
Length of Day
12h 08m
Waning Gibbous, 88% of the Moon is Illuminated
Sep 22
Waning Gibbous
Sep 26
Last Quarter
Oct 4
New
Oct 11
First Quarter
Oct 18
Full

Hourly Weather History & Observations

Time (CDT) Temp. Dew Point Humidity Pressure Visibility Wind Dir Wind Speed Gust Speed Precip Events Conditions
12:53 AM 55.0 °F 52.0 °F 89% 29.89 in 10.0 mi Calm Calm - N/A   Clear
1:53 AM 53.1 °F 51.1 °F 93% 29.89 in 8.0 mi Calm Calm - N/A   Clear
2:53 AM 53.1 °F 51.1 °F 93% 29.89 in 9.0 mi Calm Calm - N/A   Clear
3:53 AM 50.0 °F 48.9 °F 96% 29.90 in 9.0 mi Calm Calm - N/A   Clear
4:53 AM 50.0 °F 48.0 °F 93% 29.91 in 10.0 mi Calm Calm - N/A   Clear
5:53 AM 52.0 °F 50.0 °F 93% 29.92 in 10.0 mi Calm Calm - N/A   Clear
6:53 AM 51.1 °F 48.9 °F 92% 29.95 in 10.0 mi Calm Calm - N/A   Clear
7:53 AM 55.9 °F 51.1 °F 84% 29.95 in 10.0 mi NE 5.8 mph - N/A   Clear
8:53 AM 61.0 °F 52.0 °F 72% 29.97 in 10.0 mi NE 6.9 mph - N/A   Clear
9:53 AM 64.0 °F 52.0 °F 65% 29.98 in 10.0 mi NE 9.2 mph - N/A   Clear
10:53 AM 68.0 °F 51.1 °F 55% 29.98 in 10.0 mi ENE 8.1 mph - N/A   Clear
11:53 AM 69.1 °F 50.0 °F 51% 29.97 in 10.0 mi NE 8.1 mph 16.1 mph N/A   Clear
12:53 PM 71.1 °F 50.0 °F 47% 29.96 in 10.0 mi Variable 6.9 mph - N/A   Clear
1:53 PM 72.0 °F 48.9 °F 44% 29.94 in 10.0 mi North 9.2 mph - N/A   Clear
2:53 PM 73.0 °F 50.0 °F 44% 29.93 in 10.0 mi ENE 9.2 mph - N/A   Clear
3:53 PM 73.0 °F 48.9 °F 42% 29.92 in 10.0 mi Calm Calm - N/A   Clear
4:53 PM 72.0 °F 50.0 °F 46% 29.92 in 10.0 mi North 5.8 mph - N/A   Clear
5:53 PM 71.1 °F 48.0 °F 44% 29.92 in 10.0 mi NNE 6.9 mph - N/A   Clear
6:53 PM 66.0 °F 51.1 °F 59% 29.93 in 10.0 mi NNE 4.6 mph - N/A   Clear
7:53 PM 62.1 °F 52.0 °F 70% 29.95 in 10.0 mi Calm Calm - N/A   Clear
8:53 PM 57.9 °F 52.0 °F 81% 29.96 in 10.0 mi NE 3.5 mph - N/A   Clear
9:53 PM 57.9 °F 53.1 °F 84% 29.97 in 10.0 mi Calm Calm - N/A   Clear
10:53 PM 55.0 °F 51.1 °F 86% 29.97 in 10.0 mi NE 3.5 mph - N/A   Clear
11:53 PM 54.0 °F 50.0 °F 86% 29.97 in 10.0 mi ENE 4.6 mph - N/A   Clear